Theta_e
315 315 315 315 316 316 316 316 316 315 315 316 316 317 316 317 315 309 302 309 313 320 325 314 312 307 299 295 298 299 289 285 289 291 293 299 299 307 308 306 308 326 336 337 341
315 315 315 315 315 316 315 315 315 315 315 315 315 316 316 316 307 304 313 319 322 325 316 309 305 304 294 294 294 292 290 290 296 297 294 298 299 301 304 304 304 328 338 340 341
315 315 315 315 315 316 315 315 315 315 315 315 315 315 316 314 301 303 325 328 323 323 320 313 308 302 293 293 293 291 291 296 297 300 300 300 300 301 301 300 302 309 336 340 339
315 315 315 315 314 314 314 314 314 314 314 314 314 315 316 309 287 306 332 331 336 320 317 312 304 295 291 291 295 290 294 296 296 300 300 299 303 301 301 301 306 310 338 339 337
314 314 314 313 313 313 313 314 314 313 313 313 313 314 310 300 299 310 322 322 326 317 314 308 301 296 291 291 292 290 294 296 298 299 300 302 300 301 300 304 305 327 335 334 332
314 314 312 311 311 312 313 314 314 313 312 313 314 313 305 293 306 310 311 313 319 315 313 308 301 300 293 293 291 294 296 296 297 297 299 299 300 300 303 304 306 327 329 331 329
314 314 312 312 311 312 312 312 312 312 312 312 313 310 302 297 309 310 308 306 310 318 310 311 308 300 298 293 297 296 291 294 295 295 296 300 297 298 303 304 302 311 325 326 327
313 312 312 312 312 312 312 312 312 312 312 313 314 308 296 309 310 307 307 306 309 309 312 312 310 302 296 300 299 293 289 287 293 295 297 297 292 300 302 302 301 303 309 324 326
312 312 312 312 312 312 311 311 312 312 313 312 308 304 296 313 307 309 308 305 310 311 311 312 306 300 301 295 291 289 287 286 290 295 296 294 292 298 302 302 300 300 304 315 326
311 311 311 311 311 311 310 310 310 310 309 310 309 301 303 301 309 312 313 309 306 309 306 306 301 298 297 290 286 287 286 287 288 293 293 292 291 297 300 301 300 300 301 302 319
309 310 310 310 310 309 307 301 293 293 299 299 300 301 303 309 312 309 313 308 308 305 299 303 295 291 295 296 296 294 290 289 291 295 292 291 292 294 298 297 298 298 299 300 301
309 309 309 309 309 309 304 296 296 298 294 303 304 304 306 307 300 304 311 303 302 296 301 297 293 299 300 299 297 293 289 289 293 295 292 292 291 294 296 297 298 299 299 300 300
310 309 309 309 309 302 296 298 304 303 293 297 302 301 302 305 300 300 306 304 300 297 297 295 297 302 299 297 296 294 290 290 290 294 295 293 289 292 297 297 298 299 299 299 300
309 309 309 308 300 296 294 299 300 302 289 291 295 300 302 304 298 307 308 304 301 296 298 297 301 299 297 296 296 290 295 294 293 290 284 292 282 289 294 296 298 298 296 298 299
308 309 308 307 299 296 297 299 302 299 277 292 295 306 303 298 301 302 309 304 298 299 300 296 297 297 295 296 299 293 297 294 293 289 286 288 285 288 293 294 298 301 303 303 301
308 308 308 301 297 299 301 300 297 284 276 288 295 295 296 299 300 304 303 306 305 300 301 299 303 301 299 301 300 299 295 293 293 286 281 286 286 285 289 293 299 302 304 306 308
308 308 305 304 294 299 298 294 284 278 289 287 289 294 293 293 298 300 298 297 294 292 291 297 297 300 303 298 299 295 288 281 278 279 279 289 286 287 293 298 302 301 303 305 307
306 306 303 302 300 302 299 291 278 284 285 292 292 293 289 295 296 296 296 293 298 296 292 289 287 296 301 297 293 291 289 280 277 279 281 290 283 288 302 304 305 307 309 311 311
305 298 297 299 306 304 295 283 282 286 292 290 291 287 288 292 293 294 294 293 296 297 291 288 289 300 301 301 297 292 287 292 285 287 283 287 294 300 302 304 306 307 308 309 311
298 294 294 303 304 299 289 285 287 291 293 292 285 289 285 289 291 292 293 299 297 300 301 296 287 297 299 301 299 295 295 287 284 280 278 286 291 292 297 300 304 303 304 306 308
292 288 295 302 301 293 284 286 289 294 295 290 289 288 289 289 291 290 293 297 300 300 301 300 291 293 297 294 290 290 290 288 289 287 280 280 290 302 302 303 302 303 304 304 306
294 284 297 300 287 290 286 288 293 293 294 292 293 291 289 291 289 291 291 297 302 303 296 301 292 286 290 297 300 297 289 290 284 285 288 285 290 302 303 304 306 307 306 304 305
291 290 298 297 282 284 288 290 293 291 291 290 291 293 295 290 287 292 295 302 303 299 299 300 293 284 289 293 296 294 292 292 291 291 288 286 290 304 305 303 306 308 305 306 304
293 285 288 290 291 287 285 287 288 294 292 292 291 295 293 292 295 293 295 301 303 302 306 303 294 288 284 290 293 291 293 296 293 286 289 290 294 299 302 302 305 308 306 302 303
291 287 291 284 286 287 288 289 287 287 293 296 292 292 292 288 291 291 297 298 301 304 298 296 292 294 297 298 299 297 295 296 293 294 291 294 294 299 302 303 304 308 304 302 301
290 289 292 288 289 287 288 288 288 289 291 291 291 292 293 290 290 290 295 296 295 299 295 297 293 294 293 298 298 296 298 298 298 298 296 297 295 301 304 305 304 304 303 301 299
297 298 292 288 288 286 286 288 289 290 293 295 294 292 291 293 295 296 298 298 299 293 296 293 293 289 288 296 296 291 295 297 298 298 298 293 297 302 303 304 304 302 299 297 296
Wind_Speed
16 16 16 16 16 16 17 17 18 17 17 17 17 16 17 19 21 14 16 18 14 22 7 3 2 4 3 3 4 4 3 7 9 7 5 8 5 11 2 7 10 7 5 21 17
15 15 15 16 17 16 17 17 17 17 17 17 16 16 15 16 17 19 21 23 26 12 8 9 6 5 4 6 4 6 9 9 5 10 6 8 10 10 10 12 12 5 12 18 16
17 17 17 18 19 17 18 18 18 18 17 16 15 15 15 14 9 11 5 20 27 24 9 6 3 5 5 4 7 5 14 11 5 11 11 14 21 5 7 15 9 3 13 12 16
17 19 19 20 20 20 20 20 18 19 18 17 14 15 13 5 9 4 3 15 12 19 14 7 4 6 7 9 9 7 4 8 6 8 7 13 16 14 6 10 7 7 16 15 12
17 18 18 20 21 21 21 21 19 19 17 17 14 13 7 6 18 12 26 14 7 19 19 16 9 7 8 6 4 6 9 9 10 15 17 15 18 20 13 9 6 4 10 11 9
15 17 19 21 21 21 19 19 18 19 19 18 15 12 6 17 9 10 8 7 9 14 16 14 10 10 4 9 8 6 18 18 14 15 15 18 19 5 18 6 3 8 7 10 10
16 17 19 21 21 21 21 21 20 20 21 19 16 11 16 25 8 6 11 4 6 14 12 17 15 8 9 4 9 12 9 11 12 7 11 12 18 22 6 5 5 11 8 9 11
18 19 21 22 23 23 23 25 25 25 24 21 17 10 17 11 20 32 27 21 18 15 17 16 15 9 3 5 5 5 5 12 10 8 8 11 21 17 3 5 7 8 11 12 13
20 21 22 23 25 25 26 28 33 30 22 15 10 7 15 8 13 19 23 19 10 16 19 13 10 9 6 8 6 3 8 5 8 9 8 10 11 7 5 5 6 5 7 14 13
22 22 23 24 26 25 25 29 32 24 6 6 8 7 8 16 7 7 8 22 13 13 16 15 8 13 13 6 15 9 5 4 7 7 7 11 8 8 7 8 9 7 7 8 15
24 24 24 25 27 27 20 10 7 2 2 12 13 12 9 10 11 5 8 14 15 6 16 16 13 18 20 17 8 9 6 6 5 14 5 9 10 10 11 7 9 8 8 9 9
26 25 25 24 28 27 15 4 8 3 14 20 26 31 34 26 29 19 6 10 13 18 18 11 25 18 10 15 13 10 8 9 11 7 7 11 15 10 10 9 10 12 9 9 6
25 25 26 25 28 12 3 12 11 12 9 15 25 20 22 25 33 29 17 20 19 19 20 27 7 19 18 15 17 15 14 11 10 4 6 10 7 5 7 6 6 9 9 8 10
27 27 26 25 12 5 13 7 6 11 7 13 8 11 11 11 10 31 25 16 12 24 18 19 23 25 19 22 16 18 14 17 15 4 6 5 6 4 6 6 1 7 7 8 9
29 30 27 17 13 8 9 8 15 3 9 9 6 2 8 13 6 2 20 16 19 12 17 18 22 23 23 21 21 15 15 17 16 6 4 1 5 8 4 5 3 2 6 6 10
31 33 32 8 4 13 15 9 7 2 10 9 6 15 10 13 7 11 10 11 8 15 17 17 12 21 23 18 20 19 12 12 12 4 6 5 7 6 3 6 4 3 2 5 7
32 34 28 9 6 5 3 3 3 7 5 15 7 16 17 17 3 4 2 17 12 13 18 15 22 16 12 19 17 20 7 3 3 6 6 7 2 8 6 5 5 5 6 8 9
35 35 10 8 8 7 4 3 9 8 18 18 19 21 6 9 6 3 4 6 13 5 6 14 13 28 18 18 17 13 13 7 6 6 3 3 3 5 5 8 8 8 11 14 13
34 5 6 6 6 5 3 5 4 5 9 17 23 7 7 10 13 7 10 9 9 13 7 11 11 7 22 19 16 15 12 12 7 2 6 5 4 5 10 15 13 14 18 13 12
11 5 6 10 2 4 2 2 4 3 16 14 11 9 6 11 6 2 4 5 10 16 12 4 8 10 16 14 18 18 11 8 3 8 5 3 5 3 5 7 10 9 12 13 12
5 5 6 13 4 4 4 4 8 12 12 10 7 8 8 6 4 3 5 2 5 17 14 1 1 3 3 3 11 3 6 5 8 6 7 5 3 1 3 10 9 5 6 8 11
4 6 6 7 6 3 7 14 12 9 16 14 11 13 13 4 4 5 8 6 4 12 21 7 2 1 4 6 4 5 8 8 8 3 4 5 3 1 6 2 8 6 7 8 10
7 4 6 5 8 8 9 15 12 15 13 6 7 6 12 6 4 8 8 6 11 5 16 9 4 3 3 6 1 4 3 8 9 5 6 7 3 4 7 4 3 7 3 10 9
4 6 5 4 7 12 16 10 14 18 7 4 6 6 4 2 7 2 3 3 7 11 7 5 2 2 6 1 2 5 5 9 9 6 7 5 11 10 12 15 4 4 3 8 13
2 3 3 9 11 16 19 7 17 11 6 9 6 17 11 3 3 2 2 2 5 11 4 4 5 3 4 9 3 6 5 9 6 8 7 12 14 15 12 8 5 6 15 14 13
3 3 3 7 12 17 11 9 18 21 5 9 11 17 10 6 5 3 5 3 2 5 4 3 3 6 3 4 6 10 6 9 10 8 7 19 11 7 9 11 15 15 13 15 14
2 4 3 6 8 11 9 15 18 22 9 10 14 9 6 6 12 10 6 7 1 1 5 7 3 4 6 4 3 4 4 9 10 4 20 13 11 17 13 13 14 9 14 15 15
Wind_Direction
346 345 342 337 334 329 326 326 322 318 316 315 315 318 315 314 307 292 246 222 198 232 189 326 270 232 125 252 239 179 198 220 219 203 249 303 292 280 309 276 313 329 109 136 159
338 336 334 334 330 325 321 319 317 315 312 312 314 315 316 312 304 272 240 234 221 195 181 199 214 173 186 197 227 186 214 224 203 212 266 268 266 295 333 319 308 63 82 139 144
329 330 329 326 327 323 320 315 315 313 309 309 314 313 314 323 308 250 293 229 223 213 214 188 204 163 205 202 202 227 240 228 267 230 249 263 272 285 274 279 264 99 155 168 162
327 328 327 326 323 322 317 312 310 311 310 304 307 310 313 323 281 196 84 8 239 191 192 212 195 173 197 207 223 237 248 237 274 270 262 247 265 263 222 253 284 313 173 166 172
332 333 332 327 321 319 316 309 302 302 302 298 298 302 313 242 249 285 300 322 112 175 192 192 184 164 185 207 226 235 240 249 244 248 250 261 262 269 252 263 309 156 142 154 149
327 327 327 325 323 319 313 306 299 296 294 293 288 281 246 251 259 265 296 264 166 184 198 191 206 193 191 216 185 229 233 246 249 255 252 252 262 261 258 202 70 112 151 156 178
324 324 323 322 321 317 311 304 296 290 287 284 278 266 245 236 227 249 298 286 310 201 196 206 215 192 189 296 230 237 257 261 246 243 244 252 263 247 247 192 184 152 171 178 181
327 324 322 321 317 314 310 306 297 289 284 278 269 257 253 246 247 256 267 272 249 251 224 199 203 224 202 279 316 203 185 248 265 223 246 169 247 252 211 173 244 177 165 183 194
328 324 322 320 317 316 314 308 298 289 279 258 250 215 268 279 233 244 224 227 225 215 216 223 181 211 226 220 272 222 238 220 276 197 226 181 252 253 248 261 246 236 206 165 178
331 327 324 319 315 314 313 310 292 295 254 208 228 220 255 245 213 211 187 207 224 185 209 220 214 221 227 173 216 212 195 214 204 273 199 254 255 258 245 229 236 230 203 214 175
331 327 323 321 314 314 320 328 352 334 270 202 197 233 285 230 263 223 144 162 208 193 199 200 205 216 219 221 234 225 219 233 232 242 195 253 251 239 239 233 244 240 222 188 208
328 325 322 319 312 312 307 228 236 9 291 229 240 242 241 246 268 253 206 173 189 198 196 211 223 208 223 216 218 218 231 245 265 273 153 253 252 227 221 226 214 223 238 227 185
324 321 320 318 310 317 247 244 269 331 273 273 239 241 242 205 241 245 224 207 202 198 205 206 222 202 210 212 213 224 221 232 238 286 276 250 253 227 245 226 232 235 215 224 203
325 321 319 324 311 328 290 283 344 314 274 281 251 257 180 186 254 227 218 214 215 202 205 223 220 189 205 217 207 227 214 227 244 231 235 156 248 273 229 237 181 252 247 249 239
322 319 318 322 289 268 259 340 316 288 265 268 243 79 116 164 277 337 189 200 213 177 199 203 192 212 208 211 209 230 216 223 234 208 203 207 87 267 45 332 176 164 142 191 205
322 318 322 324 230 251 273 293 294 176 242 272 334 43 353 241 278 2 171 204 207 211 208 220 193 198 224 219 219 226 220 231 242 173 229 229 136 275 247 205 175 277 157 165 154
320 318 315 282 237 240 328 25 250 221 268 255 271 357 334 329 306 83 246 188 196 199 211 208 222 232 202 218 225 220 184 254 248 210 207 197 66 229 323 311 202 145 53 47 29
321 316 284 250 245 239 184 193 230 244 237 296 329 330 321 356 40 97 253 172 275 252 186 203 212 214 218 214 198 214 190 163 168 178 163 135 190 314 7 25 28 37 77 66 52
322 316 289 260 256 90 293 223 240 274 345 329 326 332 331 351 342 170 206 206 187 229 190 209 230 204 211 231 203 215 197 197 126 47 121 147 94 50 24 29 43 56 66 66 63
316 318 295 313 310 70 250 263 288 285 290 298 290 280 282 315 304 236 288 161 185 212 193 288 218 236 241 216 228 213 167 159 6 133 160 145 120 124 12 46 36 44 79 88 85
334 344 269 330 57 12 344 294 287 303 338 321 281 262 268 295 290 217 248 164 232 200 188 118 37 285 85 158 199 146 164 95 108 120 155 137 112 348 239 134 98 66 63 98 99
320 323 292 347 31 322 326 326 302 306 314 288 245 249 246 186 268 253 237 251 179 197 181 180 113 211 244 268 200 216 175 141 128 180 95 116 176 298 201 142 124 113 95 123 112
320 270 298 57 1 340 313 311 305 324 318 315 329 329 307 167 234 213 271 208 150 115 154 154 169 105 6 343 15 197 168 123 113 105 175 121 192 149 139 128 287 87 10 123 112
314 325 321 10 346 332 325 323 333 325 324 285 261 289 292 254 231 229 242 146 160 143 129 160 116 183 183 87 186 170 123 141 120 113 149 154 155 178 174 163 169 57 3 87 101
12 320 333 322 331 327 325 307 331 345 325 11 328 350 329 324 351 38 85 99 166 117 67 100 150 219 46 18 9 351 130 143 126 153 135 163 157 174 167 138 131 109 112 100 88
332 322 301 302 307 324 324 339 334 343 298 349 343 335 7 36 343 325 13 271 97 133 113 88 275 135 121 27 29 63 49 131 115 106 80 113 105 119 120 112 97 94 103 95 88
304 258 255 302 328 332 336 328 330 336 311 336 336 332 327 348 312 293 286 283 359 119 149 139 230 116 126 147 73 92 324 95 85 43 142 138 138 133 128 123 110 87 83 83 87